This is the latest recevied weather packets stored in our database for station/object IU1TLK-10. If no packets are shown the sender has not sent any weather packets the latest 1 day(s).
| Time | Temp. | Humidity | Pressure | Rain* | Wind** | Luminosity | Snow |
|---|---|---|---|---|---|---|---|
| 1778087922 | 16.11° C | 54% | 1008 hPa | - | - | - | - |
| 1778082521 | 16.67° C | 54% | 1007.6 hPa | - | - | - | - |
| 1778080721 | 17.22° C | 53% | 1007.8 hPa | - | - | - | - |
| 1778073521 | 17.78° C | 54% | 1008.5 hPa | - | - | - | - |
| 1778066320 | 17.22° C | 55% | 1009 hPa | - | - | - | - |
| 1778059119 | 14.44° C | 59% | 1010 hPa | - | - | - | - |
| 1778057320 | 13.33° C | 67% | 1010.1 hPa | - | - | - | - |
| 1778055520 | 13.33° C | 69% | 1010.2 hPa | - | - | - | - |
| 1778051919 | 12.22° C | 75% | 1010.2 hPa | - | - | - | - |
| 1778050119 | 11.67° C | 79% | 1010.3 hPa | - | - | - | - |
| 1778048319 | 11.11° C | 80% | 1010.4 hPa | - | - | - | - |
| 1778046519 | 11.11° C | 82% | 1010.6 hPa | - | - | - | - |
| 1778042918 | 10.56° C | 82% | 1011 hPa | - | - | - | - |
| 1778041118 | 10.56° C | 82% | 1011.4 hPa | - | - | - | - |
| 1778039318 | 10.56° C | 82% | 1011.6 hPa | - | - | - | - |
| 1778037518 | 10.56° C | 82% | 1011.7 hPa | - | - | - | - |
| 1778035720 | 10.56° C | 81% | 1012 hPa | - | - | - | - |
| 1778033920 | 10.56° C | 81% | 1012.5 hPa | - | - | - | - |
| 1778032120 | 10.56° C | 81% | 1012.3 hPa | - | - | - | - |
| 1778030319 | 10.56° C | 81% | 1012.4 hPa | - | - | - | - |
| 1778028519 | 10.56° C | 80% | 1013 hPa | - | - | - | - |
| 1778026719 | 11.11° C | 79% | 1013.5 hPa | - | - | - | - |
| 1778024919 | 11.11° C | 78% | 1014.1 hPa | - | - | - | - |
| 1778023119 | 10.56° C | 79% | 1014.3 hPa | - | - | - | - |
| 1778017718 | 11.11° C | 78% | 1014.5 hPa | - | - | - | - |
* Rain since midnight (hover to see other rain measurements)
** Current wind speed in m/s (hover to see current wind gust speed)